This demonstration page uses our WeatherBlox Daily Observations layout. Learn more.

36.17497, -115.13722

Hourly Observations for June 7, 2016

Temp ( °F °C ) Dew Point ( °F °C ) Humidity (%) Winds ( mph kmh ) Pressure ( in mb ) Visibility ( mi km ) Precip ( " mm )
12:53 am 00:53 Clear 88 31.1 26 -3.3 10 10 Calm 29.64 1004 10 16.0934 0 0
1:53 am 01:53 Clear 86 30 28 -2.2 12 12 Calm 29.65 1004 10 16.0934 0 0
2:53 am 02:53 Clear 83 28.3 29 -1.7 14 14 NNW 9 15 29.66 1004 10 16.0934 0 0
3:53 am 03:53 Clear 80 26.7 30 -1.1 16 16 Calm 29.67 1005 10 16.0934 0 0
4:53 am 04:53 Clear 79 26.1 33 0.6 19 19 NW 7 11 29.69 1005 10 16.0934 0 0
5:53 am 05:53 Sunny 80 26.7 30 -1.1 16 16 NNW 7 11 29.71 1006 10 16.0934 0 0
6:53 am 06:53 Sunny 82 27.8 32 0 16 16 NW 5 7 29.72 1007 10 16.0934 0 0
7:53 am 07:53 Sunny 85 29.4 33 0.6 15 15 N 5 7 29.74 1007 10 16.0934 0 0
8:53 am 08:53 Sunny 88 31.1 33 0.6 14 14 Calm 29.75 1008 10 16.0934 0 0
9:53 am 09:53 Sunny 93 33.9 32 0 11 11 Calm 29.75 1007 10 16.0934 0 0
10:53 am 10:53 Sunny 96 35.6 32 0 10 10 SE 6 9 29.75 1008 10 16.0934 0 0
11:53 am 11:53 Sunny 97 36.1 32 0 10 10 S 3 6 29.74 1007 10 16.0934 0 0
12:53 pm 12:53 Sunny 100 37.8 31 -0.6 9 9 SSE 6 9 29.72 1006 10 16.0934 0 0
1:53 pm 13:53 Sunny 102 38.9 31 -0.6 8 8 S 9 15 29.7 1006 10 16.0934 0 0
2:53 pm 14:53 Sunny 104 40 31 -0.6 8 8 Calm 29.68 1005 10 16.0934 0 0
3:53 pm 15:53 Sunny 106 41.1 31 -0.6 7 7 S 10 17 29.66 1005 10 16.0934 0 0
4:53 pm 16:53 Sunny 105 40.6 30 -1.1 7 7 SE 9 15 29.65 1004 10 16.0934 0 0
5:53 pm 17:53 Sunny 105 40.6 30 -1.1 7 7 SSE 8 13 29.64 1004 10 16.0934 0 0
6:53 pm 18:53 Sunny 103 39.4 32 0 8 8 SSE 18 30 29.64 1004 10 16.0934 0 0
7:53 pm 19:53 Sunny 101 38.3 32 0 9 9 SSW 9 15 29.65 1004 10 16.0934 0 0
8:53 pm 20:53 Clear 100 37.8 32 0 9 9 WSW 7 11 29.65 1004 10 16.0934 0 0
9:53 pm 21:53 Clear 98 36.7 33 0.6 10 10 WNW 3 6 29.67 1005 10 16.0934 0 0
10:53 pm 22:53 Clear 92 33.3 36 2.2 14 14 N 6 9 29.67 1005 10 16.0934 0 0
11:53 pm 23:53 Clear 90 32.2 36 2.2 15 15 Calm 29.68 1005 10 16.0934 0 0

Powered by AerisWeather